Location: ???? ?????
(53.1382°N, 53.9881°E)
Time: 20:53:15
(UTC+00:00)

Daily predictions for brighter satellites

Satellite Brightness Start Highest point End
(mag) Time Altitude Azimuth Time Altitude Azimuth Time Altitude Azimuth
CENTAUR R/B 3.2 14:41:13 10° NW 14:49:01 81° NE 14:57:46 10° SE
NOSS 2-2 (E) 3.2 14:47:05 10° SW 14:50:37 65° SE 14:54:48 10° NE
Cosmos 1939 Rocket 3.8 14:47:43 10° S 14:51:48 56° W 14:55:54 10° NNW
Cosmos 1707 2.6 14:49:23 10° N 14:53:15 77° E 14:57:05 10° SSE
Meteor 2-9 Rocket 4.4 14:48:12 10° SSW 14:54:03 88° WNW 14:59:48 10° NNE
Cosmos 1898 Rocket 4.0 14:49:54 10° SW 14:55:03 65° WNW 15:00:15 10° NNE
Cosmos 1626 3.9 14:53:25 10° NNE 14:55:44 16° ENE 14:58:02 10° ESE
ATLAS CENTAUR R/B 3.5 14:54:53 10° WNW 14:57:28 17° NNW 15:00:01 10° NNE
ATLAS 5 CENTAUR R/B 3.9 14:56:29 10° W 14:59:02 27° SW 15:04:41 10° SSE
NOSS 2-2 (D) 3.2 14:56:57 10° SSW 15:00:26 64° SE 15:04:32 10° NE
Lacrosse 4 Rocket 3.1 14:57:39 10° NNW 15:00:38 19° NNE 15:03:37 10° ENE
ATLAS 2AS CENTAUR R/B 4.0 14:54:55 10° SSE 15:00:42 23° ESE 15:06:28 10° ENE
ATLAS 3B R/B 3.1 14:54:42 10° NW 15:01:16 50° NNE 15:08:04 10° ESE
Cosmos 1833 Rocket 3.7 14:56:46 10° NNW 15:01:48 31° NE 15:06:47 10° ESE
ISS -3.3 15:02:38 10° WSW 15:05:52 46° SSE 15:08:53 12° E
Cosmos 2298 Rocket 4.2 15:01:25 10° S 15:06:31 49° ESE 15:11:39 10° NE
Cosmos 1300 Rocket 3.7 15:02:44 10° S 15:07:02 53° E 15:11:24 10° NNE
CSL-04 Debris 4.2 15:03:04 10° SSE 15:08:28 89° ENE 15:13:54 10° NNW
Okean 1 Rocket 4.2 15:06:37 10° SE 15:10:10 24° E 15:13:46 10° NE
Iridium 4 Rocket 4.3 15:05:09 10° SSW 15:10:23 62° W 15:16:04 10° N
Sich 1 Rocket 3.6 15:05:59 10° S 15:10:31 86° E 15:15:08 10° NNE
CSL-04 Rocket 3.7 15:05:08 10° SSE 15:10:37 88° ENE 15:16:12 10° NNW
USA 186 2.7 15:08:31 10° SE 15:11:25 30° ENE 15:14:23 10° N
Resurs 01 Rocket 3.4 15:10:43 11° E 15:13:11 16° NE 15:15:57 10° NNE
Cosmos 1513 Rocket 4.4 15:07:50 10° S 15:14:00 69° E 15:20:06 10° NNE
Cosmos 1937 Rocket 4.2 15:10:15 10° SW 15:15:25 60° WNW 15:20:35 10° NNE
Cosmos 1975 4.4 15:13:27 10° SW 15:17:19 40° WNW 15:21:12 10° N
USA 238 DEB 4.3 15:10:46 10° NW 15:17:50 63° SW 15:25:11 10° SSE
USA 238 4.3 15:10:53 10° NW 15:17:56 63° SW 15:25:18 10° SSE
Cosmos 1025 Rocket 3.1 15:14:44 10° NNW 15:19:09 84° W 15:23:33 10° S
Okean 2 Rocket 3.0 15:16:29 10° S 15:20:57 73° E 15:25:25 10° NNE
YAOGAN 1 3.5 15:17:51 10° S 15:22:05 51° W 15:26:20 10° NNW
Cosmos 1766 4.3 15:21:32 10° SE 15:24:46 25° E 15:28:00 10° NNE
Cosmos 2026 Rocket 4.4 15:20:17 10° N 15:26:22 44° ENE 15:32:26 10° SE
Cosmos 1092 Rocket 4.1 15:20:27 10° N 15:26:30 54° ENE 15:32:33 10° SSE
Cosmos 1464 Rocket 3.9 15:21:04 10° S 15:27:13 80° E 15:33:28 10° NNE
Cosmos 1125 Rocket 3.8 15:22:35 10° S 15:27:39 47° ESE 15:32:44 10° NE
Cosmos 1536 Rocket 3.6 15:23:55 10° N 15:28:25 89° WSW 15:32:53 10° S
ARIANE 5 R/B 4.5 15:27:25 12° ENE 15:28:51 14° NE 15:31:08 10° NNE
Cosmos 2285 Rocket 4.3 15:23:16 10° S 15:29:10 43° ESE 15:35:08 10° NE
Cosmos 2150 Rocket 4.0 15:28:44 10° SSW 15:34:07 73° ESE 15:39:36 10° NNE
CZ-2C R/B 3.8 15:28:47 10° S 15:34:09 61° W 15:39:49 10° NNW
Resurs 1-3 4.4 15:34:06 18° ESE 15:36:41 32° ENE 15:40:36 10° N
Abrixas rocket 3.8 15:36:04 10° WSW 15:38:15 20° SSW 15:39:39 14° SSE
CREW DRAGON DEMO-1 DEB 4.5 15:36:06 10° W 15:38:42 26° SSW 15:40:31 15° SSE
SJ-6B 2.9 15:37:16 14° SE 15:40:16 51° ENE 15:44:00 10° N
CZ-4 R/B 3.6 15:38:25 10° SSW 15:42:04 28° W 15:45:43 10° NW
MOS 1 Rocket 3.0 15:38:36 10° NNE 15:43:02 74° ESE 15:47:19 10° S
NOSS 2-2 (C) 3.7 15:41:39 10° WSW 15:45:13 61° NW 15:49:30 10° NE
Cosmos 1674 2.7 15:41:40 10° NNW 15:45:32 84° W 15:49:22 10° S
CZ-2C R/B 3.0 15:43:25 10° NNE 15:48:46 46° E 15:54:08 10° S
ARGOS 3.4 15:43:25 10° S 15:48:47 73° WSW 15:54:12 10° NNW
MOS 1 4.3 15:48:05 10° SSE 15:53:47 76° ENE 15:59:30 10° NNW
Cosmos 2082 Rocket 2.8 15:49:25 10° NNW 15:54:43 40° NE 15:57:35 24° E
DMSP B5D2-2 4.3 15:54:45 10° NNE 15:59:53 47° E 16:04:58 10° S
Exosat Rocket 3.4 15:55:59 10° SSW 16:01:09 62° ESE 16:06:09 10° NE
Cosmos 909 Rocket 4.4 15:55:52 10° NW 16:02:34 55° NE 16:06:06 25° ESE
FREGAT/IRIS 2.1 16:02:49 53° SSE 16:03:20 89° W 16:05:57 10° NNW
Cosmos 2151 Rocket 4.1 15:59:12 10° SSW 16:03:38 63° WNW 16:08:09 10° N
Meteor 1-15 Rocket 4.2 15:58:24 10° S 16:04:04 85° ESE 16:09:54 10° NNE
Cosmos 1340 Rocket 3.3 16:04:08 35° ESE 16:04:42 36° E 16:08:24 10° NNE
BREEZE-M TANK 3.8 15:58:32 10° WSW 16:05:45 32° S 16:07:05 26° SE
Lacrosse 5 rocket 1.9 16:03:01 10° WNW 16:07:21 56° NNE 16:09:28 29° ENE
Cosmos 1733 3.2 16:04:09 12° S 16:07:37 58° E 16:11:24 10° NNE
Ariane Rocket 3.2 16:08:09 10° S 16:13:13 71° WSW 16:18:20 10° NNW
H-2A R/B 3.5 16:09:27 10° SSW 16:14:03 36° W 16:18:50 10° NNW
Cosmos 1269 Rocket 4.3 16:09:10 10° NNW 16:14:28 69° WSW 16:18:38 16° SSE
SL-08 RB Rocket 4.5 16:12:59 10° S 16:17:26 52° W 16:21:53 10° NNW
Cosmos 1805 3.3 16:15:02 10° SSW 16:18:57 79° WNW 16:22:54 10° N
COSMOS 2406 3.2 16:14:43 10° NNW 16:20:26 82° WSW 16:23:46 26° SSE
Cosmos 2263 Rocket 4.3 16:16:12 10° W 16:20:54 27° NW 16:25:38 10° NNE
MetOp-A 4.3 16:17:36 13° S 16:22:28 75° WSW 16:27:52 10° NNW
OBJECT-B 0.7 16:22:24 65° SSE 16:22:50 89° E 16:26:07 10° NNW
Cosmos 1844 Rocket 3.0 16:19:05 10° SW 16:24:38 66° NW 16:30:15 10° NNE
Terra 3.7 16:25:04 16° NE 16:25:12 16° NE 16:28:00 10° NNE
Okean 1-7 Rocket 3.7 16:21:18 10° N 16:25:51 59° ENE 16:26:56 45° SE
Cosmos 1626 Rocket 4.4 16:22:21 10° N 16:26:18 33° ENE 16:26:18 33° ENE
NOSS 3-4 (A) 3.4 16:22:00 10° SSW 16:27:48 58° SE 16:34:04 10° NE
NOSS 3-4 (C) 3.4 16:22:08 10° SSW 16:27:55 57° SE 16:34:11 10° NE
SPOT 1/Viking Rocket 4.3 16:27:27 32° E 16:28:15 34° ENE 16:32:51 10° N
Cosmos 2278 Rocket 2.6 16:28:24 38° ESE 16:28:27 38° ESE 16:33:38 10° NE
Meteor 2-5 Rocket 4.2 16:24:07 10° NNW 16:29:42 61° W 16:35:22 10° S
Cosmos 2266 Rocket 4.4 16:24:12 10° N 16:29:56 42° ENE 16:31:25 36° ESE
Cosmos 1626 2.6 16:27:42 10° NNW 16:31:22 59° W 16:32:55 31° SSW
Cosmos 1844 3.9 16:26:10 10° SW 16:31:50 71° NW 16:37:29 10° NNE
Meteor 1-22 Rocket 4.3 16:26:26 10° S 16:32:22 76° E 16:38:29 10° NNE
Cosmos 1455 Rocket 3.6 16:33:08 40° ENE 16:33:08 40° ENE 16:36:37 10° NNE
Meteor 1-24 Rocket 3.9 16:27:06 10° NNW 16:32:39 73° W 16:37:12 17° S
Meteor 2-19 Rocket 4.4 16:26:52 10° N 16:32:59 66° ENE 16:35:37 35° SE
ATLAS CENTAUR R/B 3.5 16:35:27 10° NNW 16:37:40 15° N 16:38:58 13° NNE
CENTAUR R/B 4.2 16:32:12 10° NW 16:39:31 40° WSW 16:47:26 10° S
Lacrosse 4 Rocket 1.1 16:35:52 10° NW 16:39:57 78° NE 16:40:15 72° E
USA 186 4.2 16:39:33 10° SSW 16:42:09 22° W 16:44:50 10° NW
ISS -3.1 16:39:10 10° W 16:41:51 50° WSW 16:41:51 50° WSW
Cosmos 1833 Rocket 2.8 16:40:36 10° NW 16:46:15 72° WSW 16:48:29 37° S
Cosmos 614 Rocket 4.5 16:41:38 10° NNW 16:46:33 42° NE 16:47:03 41° ENE
Okean 1 Rocket 4.0 16:43:27 10° SSW 16:47:48 48° WNW 16:52:12 10° N
Resurs 01 Rocket 1.5 16:48:17 60° SSE 16:49:05 89° WSW 16:53:34 10° NNW
SL-14 R/B 4.2 16:45:42 10° NNW 16:49:28 45° W 16:51:00 30° SSW
ATLAS 2AS CENTAUR R/B 2.9 16:42:43 10° SSW 16:50:38 73° SE 16:58:26 10° NE
Cosmos 2251 Rocket 3.4 16:46:14 10° NNW 16:51:39 80° ENE 16:52:46 57° SE
ATLAS 3B R/B 2.9 16:45:31 10° NW 16:52:17 66° SW 16:55:19 36° SSE
CZ-2C R/B 3.6 16:49:23 10° NNE 16:53:30 64° ENE 16:53:30 64° ENE
Cosmos 1634 Rocket 4.1 16:49:55 10° SSW 16:56:05 72° WNW 17:02:20 10° N
ERS-1 Rocket 3.7 16:57:39 37° ENE 16:57:39 37° ENE 17:02:04 10° N
Cosmos 1470 3.8 17:01:51 36° NNE 17:01:51 36° NNE 17:04:15 10° NNE
SPOT 3 Rocket 4.0 16:59:30 32° SSW 17:01:43 59° WSW 17:06:50 10° NNW
ARIANE 5 R/B 2.6 17:04:58 73° NNE 17:04:58 73° NNE 17:09:00 10° NNW
IGS 5A 3.8 17:06:02 56° NNE 17:06:02 56° NNE 17:09:29 10° N
Cosmos 1655 Rocket 3.9 16:59:40 10° N 17:06:00 87° E 17:07:56 48° SSE
Meteor 1-21 Rocket 4.2 17:01:42 10° N 17:07:31 75° ENE 17:08:23 63° SE
Landsat 7 3.7 17:10:12 77° NE 17:10:12 77° NE 17:14:53 10° NNW
Meteor 2-10 4.2 17:12:20 60° ENE 17:12:20 60° ENE 17:17:06 10° NNE
SPOT 5 3.6 17:15:20 46° NE 17:15:20 46° NE 17:20:06 10° N
Cosmos 2084 4.5 17:22:13 10° NW 17:25:57 43° N 17:25:57 43° N
Cosmos 1461 3.5 17:22:37 10° NW 17:26:46 62° N 17:26:46 62° N
CZ-2C R/B 4.1 17:23:54 10° N 17:28:59 38° WNW 17:34:07 10° SW
Cosmos 2279 Rocket 4.3 17:28:28 21° SSW 17:32:47 63° WNW 17:39:02 10° N
Cosmos 2082 Rocket 2.7 17:33:33 10° NW 17:38:59 50° WSW 17:39:26 49° SW
Cosmos 2098 Rocket 4.4 17:32:38 10° NNW 17:39:23 59° W 17:40:52 46° SW
Meteor 2-21 4.3 17:35:04 10° N 17:41:20 83° E 17:41:27 83° ESE
COSMOS 2455 4.5 17:48:23 21° NE 17:48:23 21° NE 17:50:19 10° NE
Spot 2 Rocket 3.8 17:45:03 61° W 17:45:03 61° W 17:49:45 10° NNW
Cosmos 1809 Rocket 4.3 17:39:19 10° NNW 17:45:34 83° W 17:45:52 79° SSW
Lacrosse 5 rocket 2.8 17:42:15 10° WNW 17:45:05 38° WNW 17:45:05 38° WNW
Terra 3.0 18:03:57 40° N 18:03:57 40° N 18:07:01 10° NNW
Cosmos 1140 Rocket 4.2 17:57:28 10° NNW 18:01:18 51° NNW 18:01:18 51° NNW
Cosmos 407 Rocket 4.2 18:02:12 10° NNW 18:06:03 50° NW 18:06:03 50° NW
SPOT 1/Viking Rocket 4.4 18:08:06 45° W 18:08:06 45° W 18:12:32 10° NNW
Cosmos 2278 Rocket 2.9 18:10:00 31° WSW 18:12:26 50° NW 18:17:58 10° NNE
USA 229 DEB 4.3 18:06:11 10° NW 18:13:04 51° NNE 18:14:14 47° NE
USA 229 4.3 18:06:17 10° NW 18:13:09 51° NNE 18:14:20 47° NE
ATLAS CENTAUR R/B 4.0 18:14:15 10° NNW 18:15:07 15° NNW 18:15:07 15° NNW
Lacrosse 4 Rocket 4.1 18:15:34 10° WNW 18:16:33 13° W 18:16:33 13° W
NOSS 3-4 (A) 4.2 18:12:58 10° WSW 18:18:52 51° NNW 18:25:21 10° NE
NOSS 3-4 (C) 4.2 18:13:04 10° WSW 18:18:58 51° NNW 18:25:27 10° NE
NOSS 3-1 (A) 4.4 18:18:34 10° NW 18:25:16 51° NNE 18:26:34 46° ENE
Resurs 01 Rocket 4.3 18:25:51 13° W 18:26:15 13° W 18:28:27 10° WNW
ERS-1 Rocket 4.4 18:37:40 33° WNW 18:37:40 33° WNW 18:41:00 10° NNW
ATLAS 2AS CENTAUR R/B 3.7 18:34:23 10° WSW 18:42:09 52° NNW 18:49:39 10° NE
Cosmos 2227 Rocket 4.3 18:43:10 10° NNW 18:47:06 19° NNE 18:48:06 18° NE
Cosmos 1943 Rocket 4.2 19:01:03 20° NE 19:01:03 20° NE 19:02:38 10° NE
NOSS 3-1 (C) 4.0 18:56:16 10° NW 19:02:40 72° NNW 19:02:40 72° NNW
CZ-4C R/B 3.9 19:14:58 29° NE 19:14:58 29° NE 19:18:14 10° NE
COSMOS 2455 4.0 19:31:29 39° NNW 19:31:29 39° NNW 19:36:21 10° NE
Cosmos 2297 Rocket 3.9 19:28:58 10° NNW 19:32:53 28° NNE 19:32:53 28° NNE
Cosmos 2369 Rocket 4.0 19:46:58 26° NNE 19:46:58 26° NNE 19:49:19 10° NNE
SL-16 R/B 4.1 20:20:25 28° NE 20:20:31 28° NE 20:25:35 10° N
Cosmos 2227 Rocket 3.9 20:26:57 10° NNW 20:29:54 30° N 20:29:54 30° N
ATLAS 2AS CENTAUR R/B 4.1 20:27:28 10° WNW 20:34:45 38° N 20:41:40 10° ENE
Cosmos 1943 Rocket 3.9 20:42:33 27° NNW 20:42:33 27° NNW 20:46:13 10° NNE
ATLAS 5 CENTAUR R/B 4.5 20:53:01 13° NE 20:53:01 13° NE 20:53:36 10° NE
CZ-4C R/B 3.8 21:00:08 31° NNW 21:01:30 35° N 21:07:52 10° ENE
USA 234 3.8 21:03:47 10° E 21:08:48 52° NE 21:08:48 52° NE
Cosmos 2297 Rocket 4.2 21:12:54 10° NW 21:14:40 21° NW 21:14:40 21° NW
SJ 16-02 4.0 21:22:48 10° N 21:25:33 16° NE 21:25:33 16° NE
Cosmos 2369 Rocket 4.0 21:28:45 24° NNW 21:28:45 24° NNW 21:33:08 10° NNE
Cosmos 1697 Rocket 4.3 21:35:44 27° ENE 21:35:44 27° ENE 21:38:57 10° NE
Cosmos 2263 Rocket 3.6 21:33:57 10° NNW 21:39:06 34° NE 21:40:49 29° ENE
Cosmos 1980 Rocket 4.1 21:41:59 21° E 21:41:59 21° E 21:45:21 10° NE
Lacrosse 5 3.7 22:04:05 25° E 22:04:05 25° E 22:06:22 10° ENE
SL-16 R/B 3.2 22:05:31 47° NNW 22:05:31 47° NNW 22:09:49 10° NNW
Resurs 1-4 Rocket 3.0 22:00:59 10° NNE 22:04:48 46° NE 22:04:48 46° NE
CZ-2D R/B 2.9 22:07:03 10° NNE 22:10:59 49° NE 22:10:59 49° NE
Cosmos 1821 Rocket 4.0 22:17:44 10° N 22:23:50 76° NE 22:23:50 76° NE
ATLAS 2AS CENTAUR R/B 3.6 22:19:45 10° NW 22:27:19 52° NNE 22:34:21 10° ESE
ARIANE 5 R/B 4.2 22:24:13 10° NE 22:28:21 24° E 22:29:26 23° ESE
NPP 4.0 22:27:40 10° NNE 22:32:13 64° NNE 22:32:13 64° NNE
ATLAS 5 CENTAUR R/B 3.1 22:34:32 34° N 22:34:32 34° N 22:38:33 10° NE
IRS-1D 3.9 22:36:04 10° NNE 22:41:11 62° E 22:41:11 62° E
CBERS-1 4.4 22:39:42 10° NNE 22:44:29 60° E 22:44:29 60° E
Cosmos 2278 3.9 22:46:29 62° ESE 22:46:29 62° ESE 22:52:07 10° NE
Cosmos 44 4.1 22:51:41 42° E 22:51:41 42° E 22:55:20 10° NE
CZ-4C R/B 3.8 22:45:34 10° NW 22:51:37 41° NNE 22:58:46 10° E
USA 234 3.2 22:46:32 10° ESE 22:53:05 82° NNE 22:56:08 35° WNW
Meteor 1-14 Rocket 4.1 22:49:26 10° NNW 22:55:05 80° ENE 22:55:22 77° ESE
ADEOS II 2.1 22:51:10 10° NNE 22:56:27 74° ESE 22:56:28 74° ESE
Cosmos 2369 3.6 22:56:46 85° NNW 22:56:46 85° NNW 23:02:28 10° NNE
IDEFIX/ARIANE 42P 3.9 22:53:44 10° NNE 22:58:34 34° E 23:00:48 24° SE
Nadezhda 3 Rocket 3.8 22:58:28 77° SSW 22:58:57 88° W 23:05:10 10° N
BREEZE-M DEB (TANK) 4.2 23:01:37 63° SW 23:02:23 68° S 23:22:37 10° E
Cosmos 1605 Rocket 4.4 22:56:11 10° N 23:02:33 63° ENE 23:08:17 13° SSE
Cosmos 1869 Rocket 4.5 23:00:34 10° N 23:04:46 45° ENE 23:05:35 40° ESE
SJ 16-02 3.0 23:00:30 10° NNW 23:02:26 26° NNW 23:02:26 26° NNW
Cosmos 1535 Rocket 4.5 22:58:36 10° N 23:05:03 86° E 23:07:14 45° SSE
SL-4 R/B 4.2 23:10:43 20° SE 23:10:43 20° SE 23:13:44 10° E
Cosmos 1238 Rocket 3.8 23:07:24 10° NNW 23:14:02 84° W 23:15:40 52° S
CZ-4B R/B 3.4 23:09:31 10° NNE 23:14:40 80° WNW 23:14:44 80° W
Cosmos 1697 Rocket 2.8 23:17:28 57° WNW 23:17:45 58° NW 23:23:20 10° NNE
Cosmos 2228 Rocket 3.6 23:18:11 51° ESE 23:18:41 54° E 23:23:02 10° NNE
Cosmos 389 Rocket 3.9 23:20:34 37° NNE 23:20:34 37° NNE 23:22:52 10° NNE
Cosmos 2263 Rocket 2.4 23:17:49 10° NW 23:22:18 51° WNW 23:22:18 51° WNW
USA 305 3.1 23:24:09 66° E 23:24:09 66° E 23:27:51 10° ENE
Cosmos 1782 3.5 23:25:24 49° N 23:25:24 49° N 23:28:27 10° N
Cosmos 1980 Rocket 2.0 23:23:46 67° SW 23:24:34 83° WNW 23:30:16 10° NNE
H-2A R/B 3.3 23:21:06 10° SE 23:25:18 43° ENE 23:29:35 10° N
Iridium 2 4.4 23:26:52 51° NNE 23:26:52 51° NNE 23:29:47 10° N
Cosmos 1844 Rocket 3.7 23:22:07 10° NNW 23:27:34 46° NE 23:33:00 10° ESE
Cosmos 2360 4.2 23:27:08 58° W 23:27:53 63° NW 23:33:36 10° NNE
USA 306 3.0 23:28:24 73° E 23:28:24 73° E 23:32:16 10° ENE
Cosmos 972 Rocket 4.1 23:28:10 56° WNW 23:28:10 56° WNW 23:33:05 10° NNE
ASTEX 1 3.4 23:26:06 10° N 23:31:08 82° E 23:32:27 50° S
Meteor 2-9 4.5 23:27:13 10° NNW 23:32:44 76° W 23:34:17 47° S
Cosmos 2322 Rocket 3.4 23:30:39 19° SSE 23:34:08 37° ESE 23:39:21 10° NE
Meteor 1-11 Rocket 4.1 23:28:47 10° N 23:34:34 66° ENE 23:40:11 10° SSE
Cosmos 1898 Rocket 3.4 23:29:28 10° NNW 23:34:46 84° WSW 23:40:04 10° SSE
Spot 4 Rocket 4.4 23:32:18 10° NNE 23:37:25 60° ESE 23:40:03 28° S
SL-08 R/B 3.9 23:39:50 39° NW 23:39:50 39° NW 23:43:03 10° NNW
Meteor 1-4 Rocket 3.5 23:38:30 39° ESE 23:38:59 42° E 23:42:23 10° NNE
IRS-1C 4.0 23:35:56 10° NNE 23:41:18 78° WNW 23:42:41 51° SW
Cosmos 858 Rocket 4.5 23:36:20 10° NNW 23:41:34 83° ENE 23:46:46 10° SSE
Cosmos 1500 4.4 23:39:10 10° NNW 23:41:23 32° NNW 23:41:23 32° NNW
Lacrosse 5 2.0 23:43:17 52° WNW 23:44:24 69° NNW 23:49:28 10° ENE
Resurs 1-4 Rocket 3.3 23:41:24 10° N 23:45:43 26° WNW 23:45:52 26° WNW
SL-16 R/B 2.8 23:42:52 25° S 23:45:57 52° ESE 23:51:27 10° NE
Cosmos 1339 Rocket 4.4 23:43:27 29° S 23:46:51 90° ENE 23:53:03 10° N
BREEZE-M DEB (TANK) 4.0 23:47:40 29° SSE 23:47:56 30° SE 23:53:00 10° E
Cosmos 1666 2.8 23:44:14 10° N 23:48:04 71° ENE 23:49:37 33° SSE
SL-16 R/B 4.3 23:50:37 14° WNW 23:50:37 14° WNW 23:52:05 10° NW
IRIDIUM 104 4.4 23:44:05 10° N 23:49:22 80° E 23:54:35 10° S
Cosmos 921 Rocket 2.7 23:51:30 69° SW 23:51:57 81° WNW 23:56:12 10° NNE
CZ-2D R/B 3.4 23:47:45 10° N 23:51:59 25° NW 23:52:17 24° WNW
Cosmos 1937 Rocket 3.3 23:49:21 10° NNW 23:54:32 80° WSW 23:59:39 10° SSE
PKM 4.0 23:55:43 57° SSW 23:55:43 57° SSW 23:59:07 10° SE
